Wind_Speed
28 26 25 26 24 24 25 23 23 23 25 28 28 25 22 18 18 18 18 16 14 12 12 11 11 9 8 7 6 5 5 5 6 8 9 10 11 12 13 15 16 18 19 19
31 28 27 29 26 22 23 22 22 24 26 27 29 27 23 21 21 20 19 18 17 15 14 13 12 11 9 8 8 8 8 8 9 10 11 12 13 14 14 15 16 18 19 20
32 28 28 29 26 23 22 22 23 25 28 32 31 28 27 25 24 22 22 21 20 19 17 16 15 14 12 11 10 11 11 12 12 12 13 14 15 16 16 17 18 18 19 19
31 31 32 29 27 26 25 26 27 31 34 36 36 36 35 32 31 29 27 25 24 22 20 19 18 16 15 13 13 13 13 13 14 15 16 17 17 18 19 19 20 21 21 23
31 30 31 29 29 31 31 30 32 36 39 38 37 36 37 35 34 32 31 29 27 26 24 23 21 20 19 18 17 16 16 16 17 18 18 18 19 20 21 21 22 23 24 26
31 31 29 27 29 31 33 33 35 36 37 36 36 36 36 35 34 34 33 32 31 29 28 26 25 23 23 22 20 20 19 19 20 20 20 21 22 23 24 25 26 27 27 28
30 30 28 31 33 33 33 36 36 35 35 37 38 38 37 36 36 35 34 34 33 32 31 29 27 26 25 25 24 23 23 23 24 24 24 25 25 26 27 28 29 29 29 30
27 27 29 34 34 35 35 35 35 36 35 35 36 37 37 37 37 35 36 35 34 33 32 31 30 29 29 28 28 27 27 27 28 28 28 29 29 29 30 32 32 33 33 33
29 28 31 33 33 34 35 36 36 36 34 34 35 35 36 36 36 36 35 36 35 35 34 33 33 32 31 30 30 30 30 30 30 31 31 32 32 33 34 35 35 35 35 35
29 29 31 31 32 33 34 34 33 33 33 33 34 34 34 35 35 35 35 34 34 35 34 34 34 34 32 31 31 32 32 32 33 33 33 33 34 35 36 36 35 35 35 34
27 29 31 31 31 31 32 31 31 31 31 31 32 33 32 33 33 33 33 34 33 34 34 34 34 34 32 31 31 32 32 33 33 33 33 34 34 34 33 33 33 33 34 35
27 28 29 28 28 29 29 29 29 29 29 29 30 30 30 30 30 30 31 31 31 31 32 32 33 33 33 33 32 32 32 32 32 33 32 32 32 31 31 32 33 33 34 36
26 25 25 26 26 25 26 26 26 26 26 26 27 27 27 27 27 27 27 28 29 29 30 31 32 32 32 32 32 31 31 31 30 30 29 28 28 29 31 33 34 35 36 38
23 23 24 24 23 23 23 22 22 23 23 23 24 24 24 24 25 24 24 25 25 27 28 29 30 30 29 29 28 28 28 28 28 28 29 29 30 31 32 33 35 37 39 41
19 20 19 19 19 19 18 18 18 19 19 19 19 20 20 20 20 19 20 21 22 24 25 25 25 25 25 24 24 24 26 26 27 28 29 30 31 33 34 36 37 39 41 43
15 15 14 14 15 15 15 15 15 14 14 14 15 16 16 17 18 18 18 19 20 21 21 19 19 19 19 19 21 23 24 26 27 28 30 32 34 35 37 39 40 41 42 44
13 12 11 11 11 11 11 12 12 11 10 11 12 13 13 14 14 15 16 15 15 14 14 14 15 16 17 19 21 23 24 26 28 30 32 34 36 37 39 41 43 44 45 46
11 10 9 9 8 8 8 8 8 8 9 9 9 9 10 10 9 10 10 10 11 12 13 14 16 18 20 22 23 25 26 28 29 32 33 35 37 39 41 43 44 45 46 45
10 10 9 8 8 7 8 7 7 6 6 7 8 8 8 7 7 8 8 8 10 11 14 16 17 19 22 23 24 25 27 29 31 33 35 37 39 41 42 43 44 44 45 44
11 9 8 7 7 7 6 6 6 6 7 7 7 7 8 8 8 8 8 9 11 13 15 17 18 20 22 24 26 28 30 32 33 35 37 38 39 40 41 42 42 42 41 41
11 9 8 7 7 7 7 6 6 6 7 7 6 6 6 6 7 8 9 11 13 15 17 19 21 23 25 27 29 30 32 33 34 36 37 38 38 38 38 38 38 38 38 38
11 10 9 9 9 8 7 6 6 6 5 5 5 6 6 7 9 10 12 14 16 18 19 21 23 25 27 29 30 31 32 33 34 35 35 35 34 34 34 34 34 34 35 35
11 11 10 9 9 8 7 7 6 6 6 7 7 8 9 10 12 14 15 17 19 21 22 24 26 27 28 29 30 31 32 32 32 32 31 31 31 31 32 32 32 33 33 33
11 11 10 10 9 9 9 8 8 8 8 9 9 11 12 14 16 17 18 20 22 23 24 26 27 27 28 29 29 29 29 29 29 29 28 29 29 29 30 30 30 30 30 30
10 10 10 9 9 9 9 9 9 10 10 12 13 14 16 17 18 20 21 22 24 25 25 26 26 27 27 27 27 26 26 26 26 26 26 27 27 27 27 27 27 27 27 27
10 9 9 9 8 9 9 10 11 13 14 15 16 17 18 20 21 22 23 24 24 24 24 24 25 25 24 24 24 24 24 24 24 24 24 24 24 24 24 24 25 25 26 27
9 8 8 9 9 10 11 12 14 15 16 17 19 20 21 22 22 23 23 24 24 24 23 23 23 23 23 23 22 22 22 21 21 21 21 22 22 22 22 23 23 24 25 26
Wind_Direction
230 231 248 252 249 237 235 235 242 251 254 263 268 268 265 269 272 276 281 286 289 295 305 314 321 320 312 302 295 285 276 268 257 249 246 249 252 255 257 255 255 254 253 254
236 232 241 252 256 253 241 236 240 249 257 261 266 268 263 268 272 272 274 278 281 284 291 298 305 312 308 295 290 279 272 268 260 257 257 257 258 261 262 260 261 260 260 261
238 234 239 247 251 254 252 249 248 249 253 255 260 268 268 268 275 274 272 272 275 279 283 288 292 294 294 297 290 281 272 269 266 264 263 262 263 265 265 265 264 263 263 263
241 236 239 239 245 249 249 247 246 247 248 250 254 258 263 266 268 267 267 268 269 273 277 280 282 282 282 285 286 284 280 275 271 268 267 266 269 270 271 268 267 266 266 267
244 243 245 244 244 244 246 246 247 249 250 250 253 256 259 261 263 264 263 264 267 269 271 273 274 276 276 279 282 282 282 281 278 275 272 271 272 273 272 271 270 270 270 270
246 244 244 245 246 247 247 251 250 251 253 255 256 255 257 258 260 261 261 262 264 266 268 268 269 271 273 275 279 281 282 283 283 279 276 274 274 274 274 273 273 272 273 273
247 247 246 246 246 246 249 249 254 256 256 256 256 256 256 258 258 258 259 260 261 263 264 265 265 267 270 272 275 277 280 282 281 280 277 275 274 275 277 276 275 273 274 274
248 246 245 246 248 249 252 255 257 259 258 257 255 254 254 255 257 256 257 258 258 259 260 262 263 265 267 270 272 274 277 280 280 278 277 276 275 275 276 276 275 273 275 277
245 243 245 248 250 253 255 258 260 261 260 258 256 253 252 253 254 255 255 256 256 256 257 258 260 263 265 268 270 272 275 278 280 278 276 277 276 275 276 276 275 274 275 278
247 249 249 251 252 255 258 259 261 261 260 259 257 255 254 253 253 253 253 254 253 254 255 257 259 262 264 266 270 271 274 277 278 276 276 277 276 276 277 276 274 275 278 279
249 249 250 251 255 257 258 260 261 260 259 257 257 256 254 254 253 252 252 252 252 252 254 257 258 260 264 268 271 273 273 276 278 277 277 276 276 275 274 276 278 280 282 284
250 250 251 253 256 260 261 261 260 260 258 257 255 255 253 253 253 251 250 251 251 253 255 257 260 262 264 266 269 271 272 274 275 275 276 277 276 276 278 281 284 285 287 289
253 255 258 258 260 260 262 261 259 257 256 254 253 252 251 250 248 249 249 250 251 253 255 256 259 261 263 265 267 268 270 272 274 278 281 280 280 282 284 287 288 289 291 293
257 259 259 260 261 262 263 260 257 255 254 252 250 249 247 246 246 246 248 250 252 253 254 256 256 257 259 261 264 268 272 277 280 282 281 281 283 286 288 291 293 294 296 297
256 257 257 257 257 260 260 257 254 253 251 249 247 246 243 243 244 245 248 251 252 254 253 252 254 255 259 263 269 274 277 279 281 283 285 287 290 292 294 295 297 297 298 298
254 254 253 251 254 256 254 254 251 247 243 242 242 242 242 241 239 242 244 242 244 246 247 251 255 260 269 275 278 279 282 285 287 290 292 294 296 297 298 299 300 299 299 299
250 249 249 248 248 245 242 241 239 236 230 231 232 231 232 236 238 236 233 236 240 246 256 265 270 276 281 283 286 288 290 292 293 294 296 297 299 300 301 301 301 301 301 301
233 230 229 229 226 227 230 228 224 222 222 221 219 216 219 217 223 231 238 247 254 261 269 276 281 284 286 287 288 291 294 295 297 299 301 302 303 304 304 303 303 303 303 303
226 225 223 222 219 225 226 218 206 204 206 209 213 214 215 220 232 241 251 261 270 275 279 282 285 288 292 295 298 300 302 302 303 304 305 305 306 306 305 305 305 304 304 304
229 225 223 219 217 212 206 203 204 206 204 205 211 215 221 229 240 251 263 270 275 281 286 291 295 299 301 303 305 305 306 307 307 307 307 307 307 307 307 306 306 306 306 306
217 215 215 214 209 205 202 203 206 208 207 205 213 224 234 247 257 266 277 283 291 297 301 303 305 305 306 306 307 307 308 308 308 308 308 309 309 309 309 309 309 310 310 309
213 213 212 210 208 208 208 209 210 210 213 222 241 254 267 278 286 291 295 298 301 303 304 305 305 306 306 307 308 309 309 310 310 311 311 311 312 313 314 314 314 314 313 312
204 202 203 205 208 214 218 221 230 242 253 261 269 277 284 289 293 297 299 300 302 304 305 306 306 307 308 309 310 311 312 313 314 314 315 316 316 317 318 318 318 318 317 317
209 211 210 213 220 226 234 243 253 262 266 271 279 285 288 291 294 297 299 301 303 305 306 307 308 309 310 311 313 314 315 316 317 317 318 319 320 321 321 322 323 324 324 325
215 218 221 226 229 236 248 257 264 271 277 281 284 287 290 294 297 299 301 303 304 306 307 308 309 310 312 313 314 315 316 317 318 320 321 322 324 325 326 328 330 331 332 333
215 224 232 238 247 254 261 268 273 278 282 286 289 291 294 297 299 301 302 303 304 306 307 309 310 312 313 314 314 315 315 317 319 322 324 326 328 330 332 335 337 338 339 339
224 235 249 257 263 268 273 277 282 287 290 291 293 296 297 298 300 301 302 303 304 305 307 309 310 311 312 313 314 315 316 319 322 324 327 330 332 335 337 339 341 342 344 345
Height
5816 5819 5819 5819 5820 5822 5824 5827 5829 5830 5830 5827 5825 5824 5821 5822 5825 5825 5826 5827 5827 5826 5825 5824 5823 5822 5822 5821 5821 5821 5821 5822 5822 5823 5824 5825 5826 5827 5828 5829 5830 5831 5832 5833
5807 5812 5813 5814 5814 5815 5818 5821 5822 5824 5824 5821 5819 5816 5814 5816 5818 5821 5822 5823 5824 5823 5823 5822 5822 5821 5820 5820 5820 5820 5820 5821 5821 5822 5822 5823 5824 5824 5825 5826 5826 5827 5827 5828
5800 5804 5806 5807 5810 5810 5811 5813 5817 5818 5817 5814 5813 5810 5810 5812 5814 5816 5818 5818 5820 5820 5820 5819 5819 5819 5819 5818 5818 5818 5818 5818 5819 5819 5819 5820 5820 5821 5822 5822 5822 5823 5823 5824
5792 5796 5797 5804 5804 5804 5805 5807 5808 5808 5808 5807 5808 5807 5807 5808 5810 5811 5813 5813 5814 5815 5816 5816 5816 5815 5816 5816 5816 5815 5815 5815 5816 5816 5816 5816 5817 5817 5817 5817 5817 5818 5818 5818
5784 5787 5790 5795 5795 5795 5796 5798 5798 5797 5797 5798 5800 5802 5801 5803 5804 5805 5807 5808 5809 5810 5811 5811 5811 5811 5812 5812 5812 5812 5812 5812 5811 5812 5812 5812 5812 5812 5812 5812 5812 5812 5812 5812
5776 5779 5782 5786 5786 5785 5788 5788 5785 5787 5789 5790 5792 5793 5793 5795 5797 5799 5800 5801 5802 5804 5805 5806 5806 5807 5807 5807 5807 5807 5807 5807 5807 5807 5807 5807 5807 5807 5807 5806 5806 5806 5805 5804
5768 5771 5775 5774 5774 5776 5779 5778 5777 5779 5781 5782 5783 5785 5786 5788 5789 5791 5792 5794 5795 5797 5798 5799 5800 5801 5801 5802 5802 5802 5802 5802 5802 5801 5801 5801 5800 5800 5800 5800 5799 5798 5798 5797
5760 5763 5767 5763 5765 5767 5767 5768 5769 5770 5772 5773 5774 5776 5777 5779 5780 5782 5784 5786 5787 5789 5791 5792 5793 5794 5795 5796 5796 5796 5796 5796 5795 5794 5794 5794 5793 5792 5792 5791 5791 5790 5789 5788
5753 5756 5755 5755 5757 5758 5759 5760 5760 5761 5763 5764 5765 5766 5768 5770 5772 5774 5776 5778 5780 5782 5783 5785 5786 5787 5788 5789 5789 5789 5789 5789 5788 5787 5786 5786 5785 5784 5784 5783 5782 5781 5780 5779
5745 5746 5747 5748 5749 5750 5751 5751 5752 5753 5754 5755 5755 5757 5759 5761 5763 5766 5768 5770 5772 5773 5775 5777 5778 5779 5780 5781 5781 5781 5781 5781 5780 5780 5778 5777 5777 5776 5775 5774 5772 5771 5771 5770
5737 5738 5739 5740 5741 5742 5742 5743 5744 5744 5745 5746 5747 5749 5751 5753 5755 5758 5760 5762 5764 5766 5768 5769 5770 5772 5773 5773 5773 5773 5773 5773 5772 5771 5770 5769 5768 5767 5766 5765 5764 5763 5761 5760
5730 5730 5732 5733 5734 5734 5734 5735 5736 5736 5737 5738 5739 5741 5743 5745 5747 5750 5752 5754 5756 5758 5760 5762 5763 5764 5765 5765 5766 5766 5766 5765 5764 5763 5762 5762 5761 5759 5758 5756 5755 5753 5751 5749
5723 5724 5725 5726 5726 5727 5727 5727 5728 5729 5730 5731 5732 5734 5736 5738 5740 5743 5745 5747 5749 5751 5753 5754 5755 5756 5757 5758 5758 5758 5758 5757 5757 5756 5755 5754 5753 5751 5750 5748 5746 5744 5741 5738
5718 5718 5718 5719 5720 5720 5720 5721 5721 5722 5723 5724 5726 5727 5729 5732 5734 5736 5739 5741 5743 5745 5746 5747 5748 5749 5750 5750 5750 5750 5750 5750 5750 5749 5748 5746 5745 5743 5741 5739 5737 5734 5731 5727
5712 5712 5713 5713 5714 5714 5714 5715 5716 5717 5718 5719 5721 5722 5724 5726 5729 5731 5733 5736 5737 5739 5740 5741 5741 5742 5743 5743 5744 5744 5744 5743 5742 5741 5740 5738 5736 5734 5732 5729 5726 5723 5719 5715
5708 5708 5708 5709 5709 5709 5710 5711 5712 5713 5714 5715 5717 5718 5720 5722 5724 5727 5729 5731 5732 5734 5734 5735 5736 5737 5737 5738 5738 5738 5737 5736 5734 5733 5731 5729 5726 5724 5721 5718 5715 5712 5708 5703
5704 5704 5705 5705 5706 5706 5707 5707 5709 5709 5711 5713 5714 5716 5718 5720 5721 5723 5725 5726 5728 5730 5731 5731 5732 5733 5733 5733 5732 5731 5730 5728 5727 5725 5723 5720 5717 5714 5710 5706 5702 5698 5694 5689
5701 5702 5702 5703 5704 5704 5705 5705 5707 5708 5709 5711 5712 5714 5716 5718 5719 5721 5722 5724 5725 5726 5727 5728 5728 5728 5728 5727 5726 5724 5723 5721 5719 5717 5714 5711 5707 5703 5699 5694 5689 5685 5680 5675
5699 5700 5700 5701 5702 5703 5704 5704 5705 5707 5708 5710 5711 5713 5715 5717 5718 5719 5720 5721 5722 5723 5723 5723 5723 5723 5722 5720 5719 5717 5715 5713 5710 5707 5704 5700 5696 5692 5687 5682 5677 5672 5667 5662
5696 5698 5699 5700 5701 5702 5703 5704 5705 5707 5708 5709 5711 5712 5714 5715 5716 5717 5718 5718 5719 5719 5719 5719 5718 5716 5715 5714 5712 5709 5707 5704 5701 5698 5694 5690 5685 5681 5676 5671 5665 5660 5655 5649
5694 5696 5697 5699 5700 5701 5703 5704 5705 5706 5708 5709 5710 5711 5712 5713 5714 5714 5715 5715 5715 5715 5714 5713 5712 5710 5708 5706 5704 5701 5698 5695 5691 5688 5683 5679 5675 5670 5665 5660 5654 5649 5644 5639
5693 5694 5696 5698 5699 5701 5702 5704 5705 5706 5707 5708 5709 5710 5710 5711 5712 5712 5712 5711 5710 5710 5708 5707 5705 5703 5701 5698 5696 5693 5689 5686 5682 5678 5674 5669 5665 5660 5655 5650 5645 5640 5635 5629
5691 5693 5695 5697 5698 5700 5701 5703 5704 5705 5706 5707 5707 5707 5708 5708 5708 5708 5707 5706 5705 5704 5702 5700 5698 5696 5693 5690 5687 5684 5680 5677 5673 5669 5665 5661 5656 5652 5647 5642 5637 5632 5627 5621
5690 5692 5694 5695 5697 5699 5700 5701 5702 5703 5704 5704 5704 5705 5705 5704 5704 5703 5702 5701 5699 5697 5695 5693 5690 5688 5685 5682 5679 5676 5672 5669 5665 5661 5657 5653 5649 5645 5640 5635 5630 5625 5620 5615
5689 5691 5693 5694 5695 5697 5698 5699 5700 5700 5700 5701 5700 5700 5700 5699 5698 5697 5695 5694 5692 5690 5688 5685 5683 5680 5677 5675 5672 5669 5665 5662 5658 5655 5651 5647 5643 5639 5634 5629 5624 5620 5615 5609
5688 5690 5691 5692 5694 5694 5695 5696 5696 5696 5696 5696 5696 5695 5694 5693 5692 5690 5688 5687 5685 5683 5680 5678 5676 5673 5671 5668 5665 5662 5659 5656 5652 5649 5646 5642 5638 5634 5629 5625 5620 5616 5611 5606
5686 5688 5689 5690 5691 5691 5692 5692 5692 5692 5691 5691 5690 5689 5688 5686 5685 5683 5681 5680 5678 5676 5674 5671 5669 5667 5664 5661 5659 5656 5653 5650 5647 5644 5641 5637 5633 5630 5626 5621 5617 5612 5608 5603